Montauk, NY

5:19 AM EDT on August 31, 2016 (GMT -0400)
Montauk

Weather History for KMTP - January, 2013

Change the Weather History Date:

Monday, January 7, 2013

  Actual Average (KHTO) Record (KHTO)
Temperature  
Mean Temperature 34 °F -  
Max Temperature 44 °F 39 °F 45 °F (2016)
Min Temperature 25 °F 24 °F 21 °F (2015)
Degree Days  
Heating Degree Days 30    
Moisture  
Dew Point 26 °F    
Average Humidity 66    
Maximum Humidity 88    
Minimum Humidity 47    
Precipitation  
Precipitation 0.00 in - - ()
Sea Level Pressure  
Sea Level Pressure 30.28 in    
Wind  
Wind Speed 8 mph (WNW)    
Max Wind Speed 12 mph    
Max Gust Speed 22 mph    
Averages and records for this station are not official NWS values.
T = Trace of Precipitation, MM = Missing Value Source: NWS Daily Summary

Daily Weather History Graph

Daily Weather History Graph

Search for Another Location

Airport or City:

Trip Planner

Search our weather history database for the weather conditions in past years. The results will help you decide how hot, cold, wet, or windy it might be!

Date:

Astronomy

Jan. 07, 2013 Rise Set
Actual Time 7:12 AM EST 4:35 PM EST
Civil Twilight 6:42 AM EST 5:06 PM EST
Nautical Twilight 6:07 AM EST 5:40 PM EST
Astronomical Twilight 5:34 AM EST 6:14 PM EST
Moon 2:32 AM EST (1/7) 12:44 PM EST (1/7)
Length of Visible Light 10h 24m
Length of Day
9h 22m
Waning Crescent, 23% of the Moon is Illuminated
Jan 7
Waning Crescent
Jan 11
New
Jan 18
First Quarter
Jan 26
Full
Feb 3
Last Quarter

Hourly Weather History & Observations

Time (EST) Temp. Windchill Dew Point Humidity Pressure Visibility Wind Dir Wind Speed Gust Speed Precip Events Conditions
1:54 AM 39.9 °F 33.9 °F 30.0 °F 68% 30.05 in - West 9.2 mph - N/A   Unknown
2:54 AM 39.0 °F 32.8 °F 30.0 °F 70% 30.06 in - WNW 9.2 mph - N/A   Unknown
3:54 AM 39.0 °F 32.8 °F 30.0 °F 70% 30.07 in - WNW 9.2 mph - N/A   Unknown
5:54 AM 37.9 °F 30.9 °F 30.0 °F 73% 30.12 in - WNW 10.4 mph - N/A   Unknown
6:54 AM 37.9 °F 31.5 °F 30.9 °F 76% 30.16 in - WNW 9.2 mph - N/A   Unknown
7:54 AM 39.9 °F 33.4 °F 30.0 °F 68% 30.19 in - NW 10.4 mph 18.4 mph N/A   Unknown
8:54 AM 41.0 °F 34.3 °F 30.0 °F 65% 30.22 in - WNW 11.5 mph 19.6 mph N/A   Unknown
10:54 AM 42.1 °F 35.7 °F 28.0 °F 58% 30.27 in - NW 11.5 mph 21.9 mph N/A   Unknown
11:54 AM 43.0 °F 36.8 °F 27.0 °F 53% 30.27 in - NW 11.5 mph - N/A   Unknown
12:54 PM 43.0 °F 37.7 °F 27.0 °F 53% 30.30 in - WNW 9.2 mph - N/A   Unknown
1:54 PM 44.1 °F 39.5 °F 26.1 °F 49% 30.32 in - NW 8.1 mph - N/A   Unknown
2:54 PM 43.0 °F 38.8 °F 24.1 °F 47% 30.35 in - NNW 6.9 mph - N/A   Unknown
5:54 PM 39.0 °F 35.7 °F 25.0 °F 57% 30.41 in - West 4.6 mph - N/A   Unknown
6:54 PM 37.9 °F 35.5 °F 24.1 °F 57% 30.41 in - West 3.5 mph - N/A   Unknown
7:54 PM 32.0 °F - 21.9 °F 66% 30.41 in - Calm Calm - N/A   Unknown
8:54 PM 28.0 °F - 19.9 °F 72% 30.41 in - Calm Calm - N/A   Unknown
9:54 PM 27.0 °F - 21.9 °F 81% 30.41 in - Calm Calm - N/A   Unknown
10:54 PM 25.0 °F - 21.9 °F 88% 30.41 in - Calm Calm - N/A   Unknown
11:54 PM 28.0 °F - 24.1 °F 85% 30.40 in - Calm Calm - N/A   Unknown